Location: Ida Center
(41.8662°N, 83.5713°W)
Time: 18:34:17
(UTC+00:00)

SeaSat 1 - Pass Details

Date: 17 November 2019
Orbit: 745 x 747 km, 108.0° (Epoch: 12 December)

Event Time Altitude Azimuth Distance (km) Brightness Sun altitude
Rises 23:24:55 0° 144° (SE) 3,174 5.5 -13.6°
Reaches altitude 10° 23:27:11 10° 142° (SE) 2,254 4.7 -14.0°
Maximum altitude 23:32:02 66° 60° (ENE) 813 2.4 -14.9°
Drops below altitude 10° 23:36:55 10° 339° (NNW) 2,270 5.1 -15.8°
Sets 23:39:12 0° 337° (NNW) 3,198 5.9 -16.2°
